NOAA 16 DEB, 42379

Orbit data source: Space-Track

NOAA 16 DEB, 42379 is space debris in SSO originally from a launch on Thu, 21 Sep 2000 UTC launched from the Air Force Western Test Range (AFWTR). Debris objects in space refer to the collection of defunct objects orbiting the Earth. Examples of debris include non-operational satellites, rocket bodies, and fragments generated from explosions, collisions, or faulty payload assembly.

Loading next visibility...
Identifier
42379, 2000-055RX
Orbit
SSO
Country
Flag of USUS
Related business
Manufacturer
Unknown
Mission
Spacecraft
Bus & Motor
Unknown
Mass
Unknown
Launch date (UTC)
2000-09-21 (25 years ago)
Launch vehicle
Unknown
Launch site
Air Force Western Test Range (AFWTR)
Object type
Payload
Rocket body
Debris
Shape & HBR
Unknown shape, 0.1 m
Radar Cross Section
Small (<0.1 m²)

Expand to show TLE details & history
Last TLE update: 20 hours ago

TLE from 20 hours ago
0 NOAA 16 DEB
1 42379U 00055RX  25299.78966300  .00026157  00000-0  45150-2 0  9999
2 42379  98.9362 125.2961 0025429 101.9788 258.4267 14.68197206501820
Epoch: 2025-10-26T18:57Z
TLE epoch observation values (Epoch: 2025-10-26T18:57:06.883Z)
Latitude
0.00002°
Longitude
165.6166°
Altitude
673.44 km
Speed
7.518 km/s
True Right ascension
08h 21m 11s
True Declination
0° 00' 00"
Sunlit
Object was in daylight at epoch
Visualization orbit readout
Latitude
Unknown
Longitude
Unknown
Altitude
Unknown
Speed
Unknown
Apparent Right ascension
Unknown
Apparent Declination
Unknown
Sunlit
N/A
Visualization observer readout
Local Sidereal Time
10:06:39
Azimuth
Unknown
Elevation
Unknown
Doppler factor
Unknown
Orbital elements
Apogee altitude
681.842 km
Perigee altitude
646.028 km
Semi-major axis
7,042.072 km
Eccentricity
0.00254
Inclination
98.9362°
RAAN
125.2961°
Arg. of periapsis
101.9788°
True anomaly
258.14141°
Mean anomaly
258.4267°
Eccentric anomaly
258.28404°
Mean motion
3.67276 °/min
Orbital period
98.02 mins
BSTAR
0.004515
Loading maneuver chart data...
Computing Atmospheric mass density...
Loading historical data...
Loading historical data...
Loading historical data...
Loading historical data...
Loading historical data...
Loading historical data...
Loading historical data...

Documentation

Showing up to 5 results
|